User: anonymous   Login
Location: Mount Kobau Star Party
(49.1167°N, 119.7333°W)
Time: 02:31:10
(UTC-08:00)
Language:

TSX-5 - Orbit

View from above orbital plane
View from above orbital plane
View from above satellite
View from above satellite

Ground track
Ground track

The orbit data is extracted from the following two-line orbital elements,

1 26374U 00030A   16340.89425431  .00001574  00000-0  14380-3 0  9991
2 26374  68.9306 241.1606 0648851 134.2155 231.4168 14.04326008828965
Epoch (UTC): 05 December 2016 21:27:43
Eccentricity: 0.0648851
inclination: 68.9306°
perigee height: 408 km
apogee height: 1350 km
right ascension of ascending node: 241.1606°
argument of perigee: 134.2155°
revolutions per day: 14.04326008
mean anomaly at epoch: 231.4168°
orbit number at epoch: 82896

The dashed part of the orbit path shows where the satellite is in the earth's shadow,  

DLR